Date,TemperatureHighF,TemperatureAvgF,TemperatureLowF,DewpointHighF,DewpointAvgF,DewpointLowF,HumidityHigh,HumidityAvg,HumidityLow,PressureMaxIn,PressureMinIn,WindSpeedMaxMPH,WindSpeedAvgMPH,GustSpeedMaxMPH,PrecipitationSumIn
2013-3-1,70,52,34,11,5,-2,27,16,10,30.14,30.03,4,0,4,0.00
2013-3-2,77,55,32,18,13,8,40,21,10,30.19,29.99,13,0,13,0.00
2013-3-3,80,51,0,21,15,6,42,18,10,30.00,29.72,17,0,17,0.26
2013-3-4,78,64,52,21,13,3,28,14,10,29.88,29.62,51,1,51,0.40
2013-3-5,66,53,41,28,24,18,57,34,18,30.13,29.88,1,0,1,0.00
2013-3-6,80,61,45,24,21,15,43,25,10,30.02,29.80,1,0,1,0.00
2013-3-7,81,66,48,26,19,9,40,18,10,29.87,29.74,27,0,27,0.00
2013-3-8,71,63,57,50,36,14,67,37,13,29.81,29.65,39,0,39,0.07
2013-3-9,59,48,41,38,28,19,70,49,24,29.81,29.65,29,0,29,0.25
2013-3-10,61,47,33,34,25,19,81,46,21,29.97,29.79,3,0,3,0.00
2013-3-11,68,51,29,23,16,7,56,29,10,30.00,29.84,13,0,13,0.00
2013-3-12,78,58,38,24,14,7,37,20,10,30.05,29.87,5,0,5,0.00
2013-3-13,53,51,48,25,24,23,39,35,31,30.07,30.05,0,0,0,0.00
2013-3-25,63,49,33,10,2,-9,27,16,10,30.00,29.79,0,0,0,0.00
2013-3-26,73,55,37,13,10,5,32,18,10,30.04,29.83,0,0,0,0.02
2013-3-27,78,63,47,19,16,11,30,17,10,29.91,29.79,0,0,0,0.00
2013-3-28,82,69,52,21,17,9,29,14,10,29.94,29.82,0,0,0,0.00
2013-3-29,83,71,59,21,15,6,18,12,10,29.95,29.82,0,0,0,0.00
2013-3-30,83,70,53,21,14,4,17,11,10,29.93,29.79,1,0,1,0.00
2013-3-31,84,74,52,25,18,12,25,12,10,29.88,29.77,1,0,1,0.00